Tracking 31027 objects as of 19-Jul-2025
HD Live streaming from Space Station
objects crossing your sky now

DMSP 5D-2 F13 DEB

Track DMSP 5D-2 F13 DEB now!
10-day predictions


NORAD ID: 42259
Int'l Code: 1995-015FZ
Perigee: 776.9 km
Apogee: 792.1 km
Inclination: 98.7 °
Period: 100.4 minutes
Semi major axis: 7155 km
RCS: Unknown
Launch date: March 24, 1995
Source: United States (US)
Launch site: AIR FORCE WESTERN TEST RANGE (AFWTR)

Note: This is SATELLITE DEBRIS
Your satellite tracking list
ARIANE 5 R/B
Track 1 satellite(s)




NASA's NSSDC Master Catalog

Two Line Element Set (TLE):
1 42259U 95015FZ  25199.03603077  .00002819  00000-0  10184-2 0  9990
2 42259  98.6631 227.9405 0010585 173.9777 186.1536 14.34310036513190
Source of the keplerian elements: AFSPC